Torna al catalogo

METEOR 2-11 DEB

AttivoPO
NORAD 40706·DEBRIS·🇷🇺 Russia

Lanciato Jul 5, 1984 da Plesetsk Cosmodrome

Loading…

Prossimi Passaggi (prossime 24 ore)

TLE

AggiornatoSource: Space-Track

Epoca: Sep 13, 2026, 02:24 UTC

1 40706U 84072H   26256.10028417  .00002413  00000-0  16655-2 0  9997
2 40706  82.5208 296.6224 0015046  89.7774 270.5118 13.98772430601491

Traccia METEOR 2-11 DEB in tempo reale con AllMySat

Download on the App Store